Location: Cogollal
(10.0582°N, 67.8466°W)
Time: 20:04:46
(UTC+00:00)

Cosmos 2278 Rocket - Pass Details

Date: 14 April 2024
Orbit: 839 x 846 km, 71.0° (Epoch: 18 May)

Event Time Altitude Azimuth Distance (km) Brightness Sun altitude
Rises 08:53:32 0° 336° (NNW) 3,394 5.3 -21.9°
Reaches altitude 10° 08:56:01 10° 331° (NNW) 2,459 4.5 -21.3°
Maximum altitude 09:01:30 53° 255° (WSW) 1,026 2.2 -20.0°
Drops below altitude 10° 09:06:58 10° 179° (S) 2,455 4.5 -18.7°
Sets 09:09:28 0° 175° (S) 3,389 5.3 -18.1°
